Overview Statistics Trail Chart Weather Telemetry Raw packets
 

This is the latest recevied weather packets stored in our database for station/object KQ7A. If no packets are shown the sender has not sent any weather packets the latest 10 day(s).

<< 10 11 12 13 14 15 16 >>
Time Temp. Humidity Pressure Rain* Wind** Luminosity Snow
1788608909 8.33° C 69% 1017.5 hPa 0 mm - 0 W/m² -
1788608608 8.33° C 68% 1017.6 hPa 0 mm - 0 W/m² -
1788608302 8.33° C 69% 1017.5 hPa 0 mm - 0 W/m² -
1788607998 7.78° C 72% 1017.5 hPa 0 mm - 0 W/m² -
1788607693 8.33° C 69% 1017.3 hPa 0 mm - 0 W/m² -
1788607388 8.89° C 68% 1017.4 hPa 0 mm - 0 W/m² -
1788607083 8.89° C 66% 1017.4 hPa 0 mm - 0 W/m² -
1788606783 8.89° C 67% 1017.4 hPa 0 mm - 0 W/m² -
1788606482 9.44° C 65% 1017.4 hPa 0 mm - 0 W/m² -
1788606176 9.44° C 65% 1017.4 hPa 0 mm - 0 W/m² -
1788605872 10° C 62% 1017.6 hPa 0 mm - 0 W/m² -
1788605571 10.56° C 60% 1017.6 hPa 0 mm - 0 W/m² -
1788605265 10.56° C 60% 1017.3 hPa 0 mm - 0 W/m² -
1788604962 11.67° C 59% 1017.3 hPa 0 mm - 0 W/m² -
1788604656 10.56° C 59% 1017.6 hPa 0 mm - 0 W/m² -
1788604381 10.56° C 58% 1017.3 hPa 0 mm - 0 W/m² -
1788604048 10.56° C 61% 1017.6 hPa 0 mm - 0 W/m² -
1788603744 11.11° C 60% 1017.6 hPa 0 mm - 0 W/m² -
1788603443 10.56° C 61% 1017.5 hPa 0 mm - 0 W/m² -
1788603142 11.11° C 58% 1017.5 hPa 0 mm - 0 W/m² -
1788602838 11.11° C 58% 1017.4 hPa 0 mm - 0 W/m² -
1788602533 12.22° C 55% 1017.1 hPa 0 mm - 0 W/m² -
1788602232 13.33° C 53% 1017 hPa 0 mm - 0 W/m² -
1788601926 13.33° C 51% 1017.4 hPa 0 mm - 0 W/m² -
1788601621 15° C 47% 1016.9 hPa 0 mm - 0 W/m² -

* Rain latest hour (hover to see other rain measurements)
** Current wind speed in m/s (hover to see current wind gust speed)